{"data":{"norad_id":65485,"epoch":"2026-09-20T04:39:27.908064Z","epoch_age_seconds":138359,"freshness":"FRESH","line1":"1 65485U 25195AD  26263.19407301  .00008977  00000+0  30051-3 0  9996","line2":"2 65485  53.1598  73.2512 0000213 221.9398 138.1587 15.31716712 59776","mean_motion":15.31716712,"eccentricity":2.13e-5,"inclination_deg":53.1598,"raan_deg":73.2512,"arg_perigee_deg":221.9398,"mean_anomaly_deg":138.1587,"bstar":0.00030051,"rev_number":5977,"period_min":94.012162217631,"perigee_km":470.54429805733,"apogee_km":470.83605809511,"semimajor_km":6848.8271780762,"source":"CELESTRAK","updated_at":"2026-09-21T09:00:35.640694Z"}}